Location: Blazny
(46.0612°N, 84.4033°W)
Time: 20:46:03
(UTC-04:00)

Envisat - Pass Details

Date: 18 September 2024
Orbit: 762 x 764 km, 98.3° (Epoch: 11 October)

Event Time Altitude Azimuth Distance (km) Brightness Sun altitude
Rises 04:53:41 0° 13° (NNE) 3,237 6.9 -24.9°
Reaches altitude 10° 04:56:00 10° 14° (NNE) 2,307 6.0 -24.5°
Maximum altitude 05:01:06 88° 105° (ESE) 769 2.9 -23.8°
Enters shadow 05:02:20 53° 192° (SSW) 933 3.1 -23.6°
